This demonstration page uses our WeatherBlox Daily Observations layout. Learn more.

Hourly Observations for March 30, 2019

Temp ( °F °C ) Dew Point ( °F °C ) Humidity (%) Winds ( mph kmh ) Pressure ( in mb ) Visibility ( mi km ) Precip ( " mm )
12:15 am 00:15 Cloudy with Light Wintry Mix 31 -0.5 31 -0.5 100 100 N 18 30 30.21 1023 5 8.0467 0 0
12:35 am 00:35 Cloudy 31 -0.5 31 -0.6 99 99 N 21 33 30.21 1023 10 16.0934 0 0
12:55 am 00:55 Cloudy 31 -0.5 31 -0.6 99 99 N 16 26 30.21 1023 10 16.0934 0 0
1:15 am 01:15 Cloudy 32 -0.2 31 -0.5 98 98 N 20 31 30.22 1023 10 16.0934 0 0
1:35 am 01:35 Cloudy 32 -0.1 31 -0.5 97 97 N 17 28 30.22 1023 10 16.0934 0 0
1:55 am 01:55 Cloudy 32 0 31 -0.4 97 97 N 15 24 30.22 1023 10 16.0934 0 0
2:15 am 02:15 Cloudy 32 0 31 -0.3 98 98 N 16 26 30.23 1024 10 16.0934 0 0
2:35 am 02:35 Cloudy with Light Snow 32 0 31 -0.3 98 98 N 15 24 30.23 1024 7 11.26538 0 0
2:55 am 02:55 Cloudy with Light Snow 32 0 32 -0.2 99 99 N 15 24 30.23 1024 7 11.26538 0 0
3:15 am 03:15 Cloudy with Light Snow 32 0 32 -0.2 99 99 NNW 15 24 30.23 1024 4 6.43736 0 0
3:35 am 03:35 Cloudy 32 0 32 -0.1 99 99 NNW 15 24 30.23 1024 10 16.0934 0 0
3:55 am 03:55 Cloudy 32 0 31 -0.4 97 97 NNW 13 20 30.23 1024 10 16.0934 0 0
4:15 am 04:15 Cloudy 32 0 31 -0.7 95 95 NNW 12 19 30.23 1024 10 16.0934 0 0
4:35 am 04:35 Cloudy 32 0 30 -1 93 93 NNW 16 26 30.24 1024 10 16.0934 0 0
4:55 am 04:55 Cloudy 32 0.1 30 -1 92 92 NNW 16 26 30.23 1024 10 16.0934 0 0
5:15 am 05:15 Cloudy 32 0.1 30 -1 92 92 NNW 15 24 30.24 1024 10 16.0934 0 0
5:35 am 05:35 Cloudy 32 0.1 30 -1 92 92 NNW 13 20 30.24 1024 10 16.0934 0 0
5:55 am 05:55 Cloudy 32 0.1 30 -0.9 93 93 NNW 13 20 30.25 1025 10 16.0934 0 0
6:15 am 06:15 Cloudy 33 0.3 31 -0.8 92 92 NNW 14 22 30.27 1025 10 16.0934 0 0
6:35 am 06:35 Cloudy 33 0.5 31 -0.5 93 93 NNW 14 22 30.29 1026 10 16.0934 0 0
6:55 am 06:55 Cloudy 33 0.5 31 -0.5 93 93 NNW 12 19 30.29 1026 10 16.0934 0 0
7:15 am 07:15 Cloudy 33 0.5 32 -0.2 95 95 NNW 16 26 30.31 1026 10 16.0934 0 0
7:35 am 07:35 Cloudy 33 0.6 32 -0.2 94 94 N 14 22 30.32 1027 10 16.0934 0 0
7:55 am 07:55 Cloudy 33 0.6 32 -0.2 94 94 N 18 30 30.33 1027 10 16.0934 0 0
8:15 am 08:15 Cloudy 32 0.2 31 -0.8 93 93 N 16 26 30.35 1028 10 16.0934 0 0
8:35 am 08:35 Mostly Cloudy 32 0.1 31 -0.8 94 94 N 14 22 30.36 1028 10 16.0934 0 0
8:55 am 08:55 Cloudy 33 0.3 31 -0.7 93 93 N 13 20 30.37 1029 10 16.0934 0 0
9:15 am 09:15 Cloudy 33 0.5 30 -1 90 90 N 16 26 30.39 1029 10 16.0934 0 0
9:35 am 09:35 Cloudy 32 0.2 30 -1.2 90 90 N 15 24 30.39 1029 10 16.0934 0 0
9:55 am 09:55 Mostly Cloudy 32 0 28 -2 87 87 N 21 33 30.42 1030 10 16.0934 0 0
10:15 am 10:15 Partly Cloudy 32 0 28 -2.4 84 84 N 20 31 30.43 1030 10 16.0934 0 0
10:35 am 10:35 Mostly Cloudy 32 0 26 -3.5 78 78 N 22 35 30.44 1031 10 16.0934 0 0
10:55 am 10:55 Partly Cloudy 32 -0.1 23 -5.1 69 69 N 23 37 30.46 1031 10 16.0934 0 0
11:15 am 11:15 Partly Cloudy 32 -0.1 24 -4.2 74 74 N 24 39 30.46 1031 10 16.0934 0 0
11:35 am 11:35 Mostly Cloudy 32 0 24 -4.7 71 71 N 22 35 30.47 1032 10 16.0934 0 0
11:55 am 11:55 Cloudy 32 0.1 24 -4.4 72 72 N 21 33 30.47 1032 10 16.0934 0 0
12:15 pm 12:15 Cloudy 32 0.1 24 -4.3 73 73 N 24 39 30.48 1032 10 16.0934 0 0
12:35 pm 12:35 Mostly Cloudy 33 0.6 26 -3.3 75 75 N 16 26 30.47 1032 10 16.0934 0 0
12:55 pm 12:55 Partly Cloudy 33 0.6 25 -3.8 73 73 N 24 39 30.47 1032 10 16.0934 0 0
1:15 pm 13:15 Mostly Cloudy 33 0.3 24 -4.3 72 72 NNW 17 28 30.47 1032 10 16.0934 0 0
1:35 pm 13:35 Mostly Cloudy 33 0.6 25 -4.1 71 71 NNW 21 33 30.47 1032 10 16.0934 0 0
1:55 pm 13:55 Partly Cloudy 33 0.7 25 -4 71 71 N 18 30 30.47 1032 10 16.0934 0 0
2:15 pm 14:15 Mostly Cloudy 33 0.7 24 -4.2 70 70 N 15 24 30.47 1032 10 16.0934 0 0
2:35 pm 14:35 Mostly Cloudy 34 1 25 -3.7 71 71 N 20 31 30.47 1032 10 16.0934 0 0
2:55 pm 14:55 Partly Cloudy 34 1.1 23 -4.8 65 65 N 17 28 30.46 1031 10 16.0934 0 0
3:15 pm 15:15 Mostly Cloudy 34 1.3 23 -4.9 64 64 N 16 26 30.45 1031 10 16.0934 0 0
3:35 pm 15:35 Mostly Cloudy 34 1.2 23 -5 64 64 N 15 24 30.45 1031 10 16.0934 0 0
3:55 pm 15:55 Mostly Cloudy 35 1.4 23 -5.1 62 62 NNW 15 24 30.45 1031 10 16.0934 0 0
4:15 pm 16:15 Cloudy 34 1.2 22 -5.3 62 62 NNW 17 28 30.45 1031 10 16.0934 0 0
4:35 pm 16:35 Mostly Cloudy 36 2 23 -5 60 60 N 16 26 30.44 1031 10 16.0934 0 0
4:55 pm 16:55 Mostly Cloudy 35 1.9 23 -5.2 60 60 NNW 18 30 30.44 1031 10 16.0934 0 0
5:15 pm 17:15 Mostly Cloudy 36 2.1 22 -5.6 57 57 NNW 16 26 30.44 1031 10 16.0934 0 0
5:35 pm 17:35 Mostly Cloudy 35 1.5 21 -5.9 58 58 NNW 15 24 30.43 1031 10 16.0934 0 0
5:55 pm 17:55 Mostly Cloudy 35 1.9 22 -5.4 59 59 N 14 22 30.44 1031 10 16.0934 0 0
6:15 pm 18:15 Partly Cloudy 34 0.9 21 -6.1 60 60 NNW 12 19 30.45 1031 10 16.0934 0 0
6:35 pm 18:35 Partly Cloudy 33 0.8 21 -6.3 59 59 N 13 20 30.45 1031 10 16.0934 0 0
6:55 pm 18:55 Sunny 34 1.3 22 -5.8 60 60 N 10 17 30.44 1031 10 16.0934 0 0
7:15 pm 19:15 Partly Cloudy 34 1.2 21 -6.2 58 58 N 15 24 30.44 1031 10 16.0934 0 0
7:35 pm 19:35 Partly Cloudy 33 0.8 21 -6 61 61 N 10 17 30.46 1031 10 16.0934 0 0
7:55 pm 19:55 Partly Cloudy 32 0.1 22 -5.5 66 66 NW 8 13 30.47 1032 10 16.0934 0 0
8:15 pm 20:15 Clear 32 -0.2 23 -5.1 70 70 NW 6 9 30.47 1032 10 16.0934 0 0
8:35 pm 20:35 Clear 31 -0.8 23 -4.8 75 75 NW 5 7 30.47 1032 10 16.0934 0 0
8:55 pm 20:55 Clear 29 -1.7 23 -4.9 79 79 WNW 6 9 30.49 1033 10 16.0934 0 0
9:15 pm 21:15 Clear 29 -1.7 23 -5 78 78 WNW 5 7 30.49 1033 10 16.0934 0 0
9:35 pm 21:35 Clear 29 -1.9 23 -5 80 80 WNW 5 7 30.5 1033 10 16.0934 0 0
9:55 pm 21:55 Clear 28 -2 23 -4.8 81 81 WNW 6 9 30.52 1033 10 16.0934 0 0
10:15 pm 22:15 Clear 28 -2 24 -4.6 83 83 WNW 5 7 30.52 1033 10 16.0934 0 0
10:35 pm 22:35 Clear 28 -2.4 23 -4.8 84 84 WNW 5 7 30.52 1034 10 16.0934 0 0
10:55 pm 22:55 Clear 28 -2.4 23 -4.8 84 84 W 6 9 30.52 1034 10 16.0934 0 0
11:15 pm 23:15 Clear 28 -2.3 23 -4.9 83 83 W 6 9 30.52 1033 10 16.0934 0 0
11:35 pm 23:35 Clear 27 -2.6 23 -5 84 84 W 6 9 30.52 1034 10 16.0934 0 0
11:55 pm 23:55 Clear 27 -2.6 23 -5.1 83 83 W 6 9 30.52 1034 10 16.0934 0 0

Powered by AerisWeather